{"data":{"norad_id":52836,"epoch":"2026-05-25T06:00:02.000160Z","epoch_age_seconds":56505,"freshness":"FRESH","line1":"1 52836U 22062G   26145.25002315  .00088442  00000+0  23158-2 0  9998","line2":"2 52836  53.2207  44.8130 0001355  75.6058 244.6779 15.37986448  5841","mean_motion":15.37986448,"eccentricity":0.0001355,"inclination_deg":53.2207,"raan_deg":44.813,"arg_perigee_deg":75.6058,"mean_anomaly_deg":244.6779,"bstar":0.0023158,"rev_number":584,"period_min":93.628913432402,"perigee_km":451.13878856148,"apogee_km":452.98977310859,"semimajor_km":6830.201280835,"source":"CELESTRAK","updated_at":"2026-05-25T13:38:17.241575Z"}}